Location: Boiro
(42.6475°N, 8.8834°W)
Time: 14:28:33
(UTC+01:00)

Vanguard 2 - Pass Details

Date: 03 December 2021
Orbit: 553 x 2936 km, 32.9° (Epoch: 23 January)

Event Time Altitude Azimuth Distance (km) Brightness Sun altitude
Rises 18:54:30 0° 264° (W) 3,736 12.8 -9.4°
Reaches altitude 10° 18:56:59 10° 254° (WSW) 3,041 12.2 -9.9°
Maximum altitude 19:03:49 34° 192° (SSW) 2,350 10.3 -11.0°
Drops below altitude 10° 19:14:21 10° 134° (SE) 4,715 11.3 -12.9°
Sets 19:19:19 0° 127° (SE) 6,087 11.8 -13.7°
